Temp
93 92 94 92 94 73 85 87 78 82 93 87 77 77 82 82 75 69 82 79 84 93 95 98 96 96 96 97 99 100 98 99 97 96 97 98 99 98 97 97 97 93 95 93 94 95 96 94 93 92 89 90 89 88 88 86 86 87 86 86 86 87 86
93 98 96 94 94 94 88 79 85 94 97 93 80 69 72 72 67 69 79 74 78 78 72 92 92 91 94 94 95 99 97 98 97 99 96 96 98 98 97 96 95 95 95 95 97 98 98 96 95 92 89 91 90 90 89 87 87 86 87 87 87 87 86
93 97 94 89 94 96 87 86 99 83 73 71 78 74 64 65 63 66 74 79 79 79 77 88 88 90 91 93 94 96 96 96 96 98 98 96 97 98 97 98 96 96 96 97 96 99 100 98 93 92 92 92 92 91 91 91 88 89 88 90 89 87 88
93 92 88 74 81 91 94 95 89 95 87 79 72 74 75 73 65 65 68 76 72 83 85 90 90 90 91 93 93 95 96 97 98 98 98 94 96 96 98 99 99 98 99 100 101 99 99 98 95 95 95 95 95 94 91 91 91 89 89 88 87 87 88
92 78 84 79 83 79 81 82 81 84 86 91 87 84 78 72 67 66 67 66 73 83 94 94 93 92 93 95 93 92 95 99 102 101 101 96 97 97 98 99 100 100 100 101 101 100 100 100 98 97 97 96 96 95 93 93 89 90 90 90 89 88 88
80 83 90 89 88 88 84 82 79 82 80 76 69 67 85 81 73 62 67 66 76 90 99 95 94 96 98 97 95 94 97 100 99 99 101 99 98 97 99 101 103 103 101 101 102 99 97 99 100 98 97 96 96 96 95 93 93 92 92 90 89 88 88
83 87 93 94 94 93 90 87 83 87 85 84 76 62 71 80 80 82 77 71 74 92 96 94 96 98 100 98 97 97 98 99 101 101 104 100 97 98 101 101 103 103 100 99 98 93 93 95 96 98 96 96 96 96 95 94 93 92 93 93 91 88 88
88 93 95 95 94 92 88 89 90 87 82 84 81 79 80 75 78 73 73 67 76 92 93 96 100 97 102 100 101 98 101 101 100 101 102 99 95 96 101 101 102 99 98 95 92 90 90 91 93 95 96 96 96 96 96 96 94 94 94 95 93 90 89
73 78 86 87 92 89 84 83 87 88 88 88 87 87 85 73 76 78 71 63 75 88 94 95 97 100 100 100 103 102 99 99 102 102 100 97 94 95 99 97 97 97 97 93 90 91 89 90 95 94 95 95 96 96 97 96 96 96 96 95 94 92 91
57 57 63 67 73 79 84 86 87 88 87 84 81 74 76 67 74 75 73 73 81 89 91 93 95 96 95 100 102 103 101 97 101 100 98 92 94 92 94 95 96 96 93 92 90 90 90 93 95 92 92 95 97 97 97 98 97 97 97 98 96 93 92
69 71 75 85 85 83 78 82 83 85 88 89 86 81 74 70 73 73 75 76 78 83 90 89 93 94 95 96 96 97 96 99 99 95 92 94 92 93 96 93 94 92 90 90 90 90 93 96 96 95 95 96 97 94 95 99 98 98 96 97 94 94 93
77 83 81 86 87 82 83 82 82 84 85 86 83 78 74 77 74 64 76 78 78 81 88 89 89 94 93 95 95 97 97 96 100 98 90 92 96 96 95 94 93 92 91 90 90 91 94 95 95 96 97 97 96 95 96 98 100 100 99 96 94 93 92
82 83 85 87 86 87 85 85 84 83 84 84 80 79 83 81 74 70 76 78 77 83 90 93 92 92 93 97 99 100 100 100 98 95 95 96 97 96 96 92 91 91 92 90 90 92 93 95 95 96 97 96 95 95 97 96 101 100 97 95 94 94 91
80 81 83 85 84 85 85 84 85 86 85 83 84 84 86 85 77 80 81 79 81 88 91 93 95 96 99 99 99 99 98 100 95 96 94 100 99 96 95 93 94 91 92 92 91 91 91 93 93 96 94 93 96 96 97 99 97 100 96 94 91 93 91
79 83 83 83 82 82 80 85 86 85 86 86 86 85 85 85 83 85 85 81 78 89 93 94 96 96 98 98 98 100 97 99 101 99 100 100 101 101 95 92 93 92 92 92 91 90 90 92 92 93 93 94 96 100 100 101 97 99 99 93 92 91 89
71 79 81 81 82 82 80 80 83 83 82 79 83 81 86 82 77 80 83 77 78 88 93 96 95 94 93 93 93 94 95 100 97 97 98 98 97 98 97 94 94 91 92 91 91 91 93 94 93 93 92 94 96 98 100 100 102 102 99 95 93 89 89
67 78 81 81 80 77 72 74 79 83 85 86 87 91 90 87 87 80 76 78 87 89 91 90 92 96 94 93 95 94 95 92 96 96 97 99 100 98 93 91 91 95 96 94 91 94 96 95 95 96 95 96 93 95 95 97 99 101 100 97 90 89 89
68 75 76 78 71 60 64 82 88 86 83 85 83 83 86 89 87 84 87 87 89 90 91 90 91 92 91 92 93 96 92 91 92 97 98 100 103 104 101 95 95 94 93 94 94 95 94 95 99 98 96 96 95 97 98 97 97 96 93 92 90 90 89
67 71 73 66 58 60 77 86 89 90 89 88 86 88 89 90 93 91 88 88 88 89 92 92 91 91 94 97 98 101 102 97 96 94 97 94 96 98 99 95 96 92 92 92 92 92 96 97 96 96 96 97 96 97 97 96 94 92 92 91 90 90 89
71 68 66 54 57 74 83 85 88 91 90 88 86 83 87 88 90 89 87 85 91 90 90 94 94 92 97 99 96 96 101 101 100 101 100 101 103 100 99 96 93 91 94 93 95 93 95 95 97 98 97 99 98 98 99 97 95 94 92 90 89 89 88
62 65 64 63 72 73 77 79 81 85 80 81 79 71 78 88 89 90 86 85 86 89 92 94 95 95 97 91 91 100 101 100 103 103 102 104 104 104 101 103 99 93 95 95 96 93 95 97 97 97 99 99 97 97 97 97 93 95 92 88 88 88 88
70 63 61 62 62 57 66 77 84 88 90 87 87 79 75 86 88 89 86 85 87 86 86 88 90 93 87 83 88 95 101 103 103 104 105 105 105 105 105 102 101 94 95 96 96 96 95 95 97 97 99 98 95 93 94 95 93 93 90 88 88 88 87
65 64 59 59 57 63 74 78 82 88 89 87 86 77 70 82 85 85 85 85 85 85 87 86 85 80 77 83 87 95 100 102 104 103 104 106 106 105 104 104 104 98 95 95 97 95 95 96 96 97 97 97 95 91 91 95 94 91 89 88 88 88 88
64 62 60 58 66 65 73 81 83 88 90 86 80 62 65 76 84 85 85 84 85 85 84 84 82 79 76 79 87 101 103 105 105 101 100 100 102 104 104 106 104 97 93 92 94 95 95 93 96 95 96 94 91 90 93 95 93 91 89 88 88 89 89
62 57 60 64 68 76 79 82 86 88 89 83 66 56 71 78 82 84 85 86 86 85 83 84 80 83 85 87 92 97 101 104 102 102 103 102 104 103 106 105 98 97 94 94 95 96 94 92 96 97 96 93 90 90 90 90 89 91 91 89 89 88 88
62 64 60 61 67 77 82 84 87 88 80 64 62 74 78 80 82 86 87 86 86 86 84 84 85 87 92 93 94 95 97 99 98 98 100 99 99 105 99 91 93 96 97 94 95 97 93 94 96 96 93 89 88 88 89 89 90 92 90 89 89 88 87
68 64 60 57 49 71 85 85 82 85 71 70 75 78 82 86 85 85 85 85 85 86 84 87 86 88 92 92 92 92 92 91 92 95 95 93 93 93 93 95 96 97 94 93 96 97 97 98 97 95 94 88 88 87 88 88 91 90 89 89 88 87 86
60 60 57 57 71 77 87 82 70 77 80 79 81 79 80 84 84 83 82 84 85 87 85 85 87 88 89 89 90 88 88 89 88 91 93 92 93 94 97 97 97 97 92 94 96 97 98 96 94 94 91 87 86 87 87 89 90 89 88 88 87 85 84
67 65 69 76 79 81 83 83 83 83 83 83 84 83 83 81 82 84 82 80 83 84 85 86 87 87 89 91 91 88 89 88 86 86 86 87 90 95 96 96 94 95 93 92 94 94 93 92 92 90 90 87 86 86 87 87 87 87 86 86 85 84 84
71 75 76 79 80 82 84 88 86 85 84 85 85 82 80 81 83 83 80 82 83 84 84 84 85 86 86 87 86 87 88 89 87 85 86 87 88 89 90 92 93 92 94 94 93 91 89 89 88 87 89 87 83 83 86 85 86 86 85 84 83 83 83
58 55 75 76 76 79 83 83 86 87 87 84 84 81 81 82 83 84 83 82 82 83 84 82 81 83 87 85 83 83 84 85 85 83 81 84 86 86 85 87 91 92 94 94 92 90 87 88 88 88 87 86 84 84 84 86 86 84 83 82 81 81 81
55 57 64 75 77 77 80 78 78 79 83 84 84 82 82 82 84 84 84 84 80 80 79 80 81 82 84 83 81 82 82 82 82 82 83 83 83 84 85 86 83 88 87 89 87 86 84 86 87 87 86 86 86 86 88 88 86 83 81 80 81 80 81
56 59 60 70 75 74 75 77 78 78 80 82 82 83 83 84 83 82 82 82 81 80 78 79 78 75 74 75 79 84 83 82 80 80 80 81 81 81 81 80 79 77 81 83 81 84 83 86 86 85 86 88 90 88 87 86 83 82 81 80 81 82 82
50 53 57 64 60 59 69 75 76 77 78 78 77 78 80 81 79 78 78 78 80 81 81 80 78 75 72 72 71 76 79 77 79 80 79 79 79 79 82 82 81 79 80 81 82 81 81 84 85 84 85 86 87 88 87 85 83 81 80 82 82 83 82
51 57 62 64 64 62 65 69 74 76 78 77 75 74 75 76 76 77 75 74 74 74 75 79 79 75 72 70 71 71 75 80 81 82 82 81 79 78 81 81 80 80 80 81 82 82 83 84 85 86 86 88 86 87 85 85 84 82 82 81 82 83 82
60 63 66 68 65 60 63 67 69 70 73 75 75 76 76 76 76 77 76 75 73 72 73 73 75 78 78 77 77 75 77 80 80 81 83 83 82 82 82 81 80 80 80 81 81 81 82 83 84 84 86 86 85 86 85 85 84 83 83 82 82 83 82
57 63 64 65 66 66 68 68 68 69 70 71 70 71 73 74 74 74 72 72 74 74 71 69 70 70 73 78 78 76 77 79 79 80 78 78 80 81 82 82 81 80 80 82 82 82 82 82 82 83 82 83 84 85 84 84 84 83 83 83 83 81 77
MSLP
996.60 997.32 997.16 997.92 997.72 1004.60 999.88 999.92 1002.40 1000.76 998.28 1000.28 1003.20 1003.28 1001.52 1001.60 1004.08 1005.24 1001.16 1001.92 999.96 997.16 996.24 995.76 996.44 996.92 996.88 996.68 996.92 996.92 997.48 997.52 997.56 998.04 998.08 998.72 998.84 999.20 999.40 999.48 999.52 1000.00 1000.28 1000.68 1000.88 1001.08 1001.48 1002.20 1002.80 1003.12 1003.40 1003.60 1004.08 1004.60 1005.12 1005.72 1006.12 1006.32 1006.56 1006.76 1007.08 1007.40 1007.80
996.24 995.24 996.20 996.96 997.08 997.20 998.88 1001.48 999.48 997.32 996.64 997.68 1001.76 1006.24 1004.40 1004.48 1006.32 1004.80 1002.52 1003.52 1001.80 1002.16 1004.20 996.92 997.44 998.04 997.52 997.28 997.40 997.08 997.20 997.24 997.88 997.40 997.68 998.08 998.40 998.60 998.48 998.56 998.76 999.28 999.72 1000.12 1000.32 1000.44 1000.68 1001.24 1001.88 1002.56 1003.04 1003.16 1003.52 1003.92 1004.40 1005.20 1005.72 1006.16 1006.20 1006.40 1006.68 1006.96 1007.44
995.76 995.04 996.44 998.20 996.64 995.96 998.36 998.44 994.84 1000.48 1003.64 1004.64 1001.36 1003.84 1007.24 1006.88 1007.32 1006.44 1003.00 1001.52 1001.80 1001.44 1001.60 998.44 998.40 998.28 997.84 997.40 997.12 997.12 997.56 997.60 997.56 997.12 997.08 997.32 997.68 997.84 998.12 998.40 998.68 999.12 999.48 999.68 999.80 999.96 1000.12 1000.56 1001.20 1001.84 1002.36 1002.76 1003.12 1003.52 1003.88 1004.36 1005.04 1005.32 1005.68 1005.88 1006.12 1006.36 1006.68
995.08 995.96 997.48 1001.68 999.52 996.76 996.12 996.08 997.32 995.64 998.56 1000.76 1003.96 1002.56 1002.24 1003.08 1006.48 1006.96 1004.76 1002.56 1003.84 999.48 998.64 997.16 997.32 996.92 996.80 997.08 997.24 997.52 997.00 996.80 996.68 996.52 996.68 997.28 997.28 997.44 997.60 997.64 998.00 998.48 998.72 998.96 999.20 999.80 1000.28 1000.52 1001.08 1001.52 1002.04 1002.40 1002.84 1003.12 1003.56 1004.04 1004.48 1004.88 1005.24 1005.52 1005.68 1006.16 1006.32
995.16 999.04 997.32 999.00 998.52 1000.24 1000.00 999.88 999.80 998.88 998.04 996.64 998.52 999.40 1000.92 1003.32 1005.24 1005.16 1005.08 1005.32 1002.16 998.20 994.96 995.28 995.48 995.52 995.64 995.92 996.68 996.68 996.52 995.64 995.20 995.36 995.44 996.44 996.36 996.64 996.68 996.92 997.20 997.60 998.00 998.28 998.56 999.04 999.64 1000.08 1000.68 1001.28 1001.72 1002.12 1002.40 1002.64 1003.16 1003.56 1004.28 1004.60 1004.88 1004.96 1005.20 1005.56 1005.80
997.92 996.76 995.16 996.28 996.88 997.08 998.48 999.32 999.96 999.00 999.84 1001.48 1004.08 1004.16 998.76 999.72 1002.76 1004.72 1005.16 1004.60 1000.48 995.80 993.24 993.96 994.28 993.80 993.88 994.56 995.48 996.04 995.84 995.40 995.08 994.80 994.56 994.64 995.36 995.32 995.52 995.96 996.36 996.72 997.08 997.44 997.80 998.32 999.04 1000.08 1000.32 1001.00 1001.20 1001.60 1001.96 1002.16 1002.44 1002.96 1003.40 1003.88 1004.12 1004.40 1004.56 1004.96 1005.28
996.64 995.64 993.84 993.72 994.60 995.08 995.88 996.92 998.52 997.32 997.64 997.84 1000.84 1004.80 1001.80 999.44 999.00 999.64 1000.80 1002.92 1000.72 994.56 992.96 993.16 993.20 992.92 993.12 993.84 994.36 994.88 994.72 994.80 994.84 994.60 993.64 993.72 994.28 994.88 995.08 995.48 995.72 996.04 996.64 997.16 997.52 998.12 998.76 999.44 999.92 1000.40 1000.92 1001.12 1001.32 1001.60 1001.92 1002.24 1002.68 1003.08 1003.12 1003.44 1003.84 1004.36 1004.88
995.00 993.44 992.80 992.84 993.76 995.00 996.48 995.96 995.60 996.72 998.16 997.48 998.16 998.84 998.72 1000.44 999.92 1001.56 1002.04 1003.32 1000.32 994.84 992.80 992.56 992.28 992.44 992.12 992.28 992.88 993.80 993.68 993.84 994.00 993.84 993.48 993.36 994.08 994.08 994.28 994.68 995.20 995.60 996.04 996.80 997.56 998.28 998.64 998.96 999.44 999.76 1000.24 1000.60 1000.80 1001.08 1001.28 1001.60 1002.08 1002.36 1002.56 1002.76 1003.20 1003.88 1004.40
999.76 997.84 994.84 995.12 993.96 995.00 996.72 996.84 995.76 995.52 995.92 996.28 996.20 996.32 996.28 1000.56 999.92 999.96 1002.04 1004.36 1000.12 995.40 992.92 992.64 992.68 992.76 993.04 992.68 992.12 992.68 993.64 993.44 993.08 992.88 992.92 993.24 994.08 994.40 994.64 995.20 995.36 995.48 995.88 996.72 997.28 997.52 997.96 998.40 998.76 999.16 999.80 1000.28 1000.40 1000.52 1000.64 1000.92 1001.24 1001.44 1001.76 1002.00 1002.64 1003.28 1003.80
1004.08 1003.96 1001.72 1000.12 999.28 997.40 996.16 996.08 995.84 995.44 996.16 996.80 998.20 1000.16 999.16 1001.36 999.20 999.08 1000.40 1000.08 996.96 994.68 993.44 993.68 993.56 993.28 993.36 992.32 992.28 992.48 992.76 993.00 992.72 992.56 993.00 993.84 994.24 994.60 994.60 994.92 995.16 995.52 995.56 995.96 996.60 997.08 997.40 997.64 997.96 998.56 999.12 999.60 999.84 999.96 1000.00 1000.04 1000.56 1000.84 1001.16 1001.28 1001.84 1002.64 1003.24
999.40 998.72 997.40 994.68 994.84 996.12 997.76 996.64 996.60 996.12 995.28 995.16 995.96 997.40 999.52 1000.76 999.32 999.60 998.44 998.52 998.00 996.28 994.68 994.60 994.28 993.72 993.88 993.92 993.84 993.84 993.52 992.76 992.32 993.00 993.76 993.96 994.04 994.08 994.36 994.60 994.68 994.84 995.40 995.80 996.20 996.56 997.00 997.16 997.40 997.96 998.48 998.96 999.20 999.44 999.64 999.56 999.64 1000.04 1000.40 1000.76 1001.24 1001.96 1002.64
996.56 995.32 995.92 994.68 994.12 996.20 996.04 996.44 996.60 996.08 995.84 995.56 996.52 998.00 999.08 997.12 999.36 1001.24 997.72 997.28 998.60 997.48 995.00 994.28 994.32 993.76 993.48 993.28 993.32 993.52 993.24 993.24 992.68 992.60 993.64 993.56 994.56 994.64 994.52 994.84 995.16 995.36 995.48 995.56 995.88 996.16 996.40 996.80 996.96 997.36 997.76 998.12 998.56 998.84 999.12 999.08 999.08 999.40 999.72 1000.24 1000.80 1001.36 1002.04
995.76 995.24 994.72 994.24 994.08 994.00 994.72 995.08 995.24 995.88 995.88 995.88 996.76 996.64 995.84 996.28 998.76 1000.00 997.64 997.08 998.08 996.52 994.76 993.80 993.68 993.36 993.32 993.00 992.76 992.60 992.52 992.48 992.56 993.08 993.96 994.08 994.24 994.56 994.72 994.84 994.96 995.16 995.52 995.52 995.60 995.76 995.92 996.12 996.60 996.92 997.32 997.68 997.96 998.28 998.36 998.56 998.56 998.76 999.00 999.72 1000.32 1000.84 1001.48
995.24 995.48 995.24 994.48 994.72 994.32 994.44 994.64 994.48 994.44 994.96 995.64 995.68 995.48 994.76 995.32 996.76 996.52 996.52 996.56 996.80 995.36 994.80 993.76 992.88 992.12 992.04 991.88 991.56 991.80 992.64 992.80 992.72 993.52 994.04 994.36 994.56 994.76 995.16 995.20 995.12 995.20 995.16 995.28 995.44 995.56 995.88 996.08 996.40 996.60 996.96 997.24 997.52 997.80 997.96 998.00 998.20 998.12 998.56 999.32 999.96 1000.40 1001.00
994.64 993.92 994.56 994.92 995.00 995.08 995.52 993.72 994.20 994.28 993.96 994.28 994.44 994.96 994.92 995.04 995.52 995.40 995.28 995.76 996.84 994.16 992.96 993.16 992.16 991.80 991.76 992.04 992.48 992.48 992.44 992.64 992.96 993.20 993.48 993.36 992.88 992.84 993.88 994.40 994.68 994.72 994.80 994.84 995.12 995.48 995.76 995.92 996.08 996.24 996.44 996.68 996.96 997.24 997.40 997.52 997.80 997.64 997.96 998.84 999.44 999.92 1000.52
997.44 995.28 994.72 994.88 995.12 995.40 995.80 995.52 994.08 994.36 995.04 995.60 994.36 995.00 994.24 995.56 996.48 995.80 995.76 997.04 997.00 994.32 992.88 992.68 992.68 992.68 992.96 993.20 993.16 993.04 992.76 992.32 992.72 993.28 993.20 993.04 992.68 992.68 993.20 993.96 994.24 994.56 994.52 994.72 994.92 995.24 995.40 995.52 995.76 996.00 996.32 996.52 996.76 997.00 996.80 996.96 997.00 997.12 997.64 998.28 998.96 999.48 999.84
998.48 995.32 994.36 994.68 995.36 996.48 997.80 996.80 995.08 993.88 993.24 993.12 992.48 991.16 991.92 993.60 994.24 996.12 997.32 996.44 993.80 993.12 992.76 993.68 993.16 992.56 992.76 993.04 992.80 992.84 992.48 992.32 992.28 992.64 992.76 992.44 992.20 992.24 992.92 993.56 993.96 993.88 993.92 993.96 994.16 994.32 994.60 995.00 995.32 995.36 995.64 996.24 996.64 996.52 996.48 996.32 996.44 996.88 997.28 997.84 998.56 999.12 999.48
997.88 996.52 996.60 995.80 998.08 1001.00 998.76 993.40 992.60 993.36 994.48 993.60 994.08 994.40 993.56 992.36 992.88 994.12 993.76 993.60 992.72 992.80 993.00 993.20 992.84 992.88 993.00 992.64 991.84 991.28 991.88 992.40 992.48 992.12 991.64 991.56 991.40 991.28 991.84 992.64 993.08 993.40 993.40 993.44 993.56 993.68 993.88 994.08 994.12 994.24 994.68 995.44 995.88 995.96 996.12 996.24 996.44 996.64 997.04 997.60 998.16 998.76 999.16
998.28 997.28 997.16 999.28 1001.48 999.88 994.72 992.72 992.16 991.96 992.20 992.44 992.92 992.28 992.32 991.44 990.68 991.52 992.44 992.72 993.04 992.68 992.28 992.20 992.16 992.00 991.64 991.20 991.20 991.00 990.72 991.00 991.68 992.00 991.92 991.80 991.32 991.32 991.28 992.40 992.60 992.80 993.00 993.04 993.28 993.48 993.56 993.60 993.80 994.28 994.76 994.92 995.36 995.92 996.04 996.28 996.28 996.64 996.92 997.40 997.96 998.44 998.96
996.72 997.60 998.40 1001.96 1000.08 995.48 993.88 993.20 992.48 991.68 991.96 992.44 993.32 993.96 992.76 991.88 991.52 991.40 992.44 993.12 991.64 991.40 992.00 991.68 991.40 991.72 991.44 991.08 990.84 990.96 990.60 990.32 990.68 991.12 991.28 991.08 990.80 990.96 990.88 991.00 991.52 992.36 992.28 992.60 992.80 993.04 992.72 993.20 993.64 993.80 994.28 994.36 995.04 995.56 995.60 996.04 996.32 996.56 996.92 997.44 997.88 998.28 998.88
998.64 998.12 998.72 998.80 996.20 996.40 995.24 994.84 994.04 993.12 994.24 994.04 994.84 997.20 994.76 992.24 991.60 991.72 992.64 993.08 992.72 992.12 991.36 990.96 991.08 991.12 991.36 992.32 992.24 990.60 990.36 990.20 989.84 989.96 990.36 990.04 989.84 989.76 989.92 990.04 990.40 990.92 991.00 991.52 991.76 992.28 992.56 992.72 993.04 993.40 993.52 994.00 994.64 995.20 995.72 995.88 996.24 996.52 996.92 997.56 997.84 998.20 998.76
996.20 998.52 999.36 999.20 999.36 1000.88 997.60 994.32 992.76 991.64 991.56 992.12 992.00 994.20 995.68 992.48 992.16 992.12 992.76 993.16 992.60 992.80 992.88 992.12 991.52 990.96 992.72 994.28 993.16 991.16 990.32 989.84 989.88 989.56 989.36 989.24 989.12 989.16 989.24 989.16 989.44 990.20 990.28 990.44 990.80 991.52 992.08 992.28 992.24 992.52 992.88 993.60 994.40 995.16 995.56 995.72 996.20 996.56 997.08 997.52 997.64 998.08 998.68
997.80 998.20 999.72 999.64 1000.16 998.00 995.36 994.24 993.28 991.88 991.76 992.64 992.76 995.24 997.40 993.64 992.68 992.72 992.88 993.32 992.92 993.08 992.92 992.92 992.76 994.44 996.00 994.28 992.52 990.56 989.72 989.44 989.40 989.72 989.44 989.16 989.12 989.12 989.16 989.16 989.36 989.84 989.52 989.68 990.32 990.96 991.36 991.92 991.88 991.96 992.40 993.16 994.12 995.04 995.32 995.52 995.88 996.44 997.04 997.36 997.56 998.00 998.44
997.60 998.52 999.28 999.44 997.12 997.80 995.56 993.64 993.36 992.12 991.64 992.60 994.88 1000.12 998.92 995.24 993.24 992.92 992.88 993.48 993.24 993.28 993.24 993.28 993.80 994.92 996.60 995.36 992.36 989.68 988.68 988.48 988.56 989.00 989.28 989.12 988.88 988.76 988.48 988.40 988.32 988.84 989.04 989.36 990.12 990.80 991.28 991.40 991.08 991.52 992.00 992.88 993.80 994.56 995.00 995.16 995.80 996.24 996.52 996.88 997.16 997.52 998.00
998.20 999.44 999.36 997.96 996.52 994.16 994.00 993.32 992.24 992.00 991.92 993.76 998.76 1001.04 997.24 994.44 993.56 993.00 992.88 993.12 993.00 993.12 993.48 993.44 994.60 993.20 992.80 992.28 990.76 989.80 988.72 988.44 988.60 988.44 988.08 988.08 987.88 987.96 987.68 987.56 987.52 988.48 989.00 989.00 989.68 990.16 990.40 990.52 990.72 991.12 991.72 992.80 993.84 994.32 994.64 995.20 995.68 995.64 995.68 996.12 996.80 997.36 997.84
998.20 998.08 998.92 998.40 996.92 993.68 992.96 992.48 992.28 992.00 994.52 999.24 999.08 995.88 994.24 993.92 993.72 992.64 992.48 992.84 992.92 992.96 993.36 993.24 993.04 992.36 991.12 990.68 990.40 990.04 989.76 989.32 989.20 989.08 988.72 988.68 988.48 987.24 987.00 987.08 987.20 988.16 988.64 989.08 989.36 989.72 990.04 990.28 990.44 990.84 991.52 992.76 993.64 994.24 994.68 995.24 995.28 995.04 995.44 995.96 996.48 997.12 997.84
996.40 997.36 998.60 999.08 1000.88 994.84 992.04 992.44 993.20 992.52 996.32 996.28 995.28 994.32 993.48 992.88 992.92 992.96 992.96 993.00 992.96 992.76 993.16 992.68 992.72 992.32 991.56 991.08 990.96 990.76 990.40 990.36 990.12 989.96 989.44 989.08 989.68 989.88 989.04 988.72 988.56 988.64 989.24 989.56 989.72 989.80 989.96 990.00 990.24 990.60 991.40 992.76 993.60 994.20 994.84 994.92 994.72 995.04 995.48 995.88 996.40 997.00 997.72
998.12 997.88 998.76 998.40 994.68 993.44 991.40 992.76 995.76 994.36 993.80 993.80 993.52 994.12 994.36 993.28 993.40 993.68 993.84 993.32 993.08 992.96 993.16 993.12 992.68 992.24 992.04 991.52 991.24 991.44 991.24 990.88 991.08 990.76 990.04 989.64 989.32 989.92 989.76 989.44 989.04 989.04 989.80 989.88 989.84 989.68 989.76 990.00 990.28 990.64 991.56 992.92 993.68 994.36 994.84 994.36 994.60 995.08 995.52 995.92 996.40 997.12 997.84
995.76 996.00 995.12 993.04 992.24 992.28 992.32 992.44 992.68 992.92 993.12 993.12 993.20 993.48 993.88 994.24 994.12 993.40 994.00 994.28 993.72 993.40 993.16 992.92 992.68 992.64 992.00 991.56 991.56 992.20 991.76 991.60 991.76 992.28 992.12 991.36 990.72 990.12 990.32 990.08 989.64 989.48 989.88 990.04 989.96 990.08 990.16 990.44 990.64 991.12 991.72 992.88 993.88 994.68 994.60 994.36 994.92 995.40 995.84 996.28 996.88 997.52 998.00
994.88 993.52 993.16 992.76 992.64 992.28 992.28 991.52 992.08 992.60 993.12 993.24 993.64 994.36 994.52 994.44 993.92 993.96 994.60 994.28 994.04 993.64 993.56 993.64 993.16 992.88 992.84 992.64 992.76 992.48 992.12 991.72 991.92 992.04 992.16 991.80 991.08 991.20 991.32 991.24 990.36 990.20 990.24 990.24 990.44 991.04 991.32 991.28 991.64 991.88 992.32 992.96 994.36 994.92 994.64 994.80 995.12 995.64 996.16 996.76 997.36 997.76 998.20
998.72 998.88 994.20 993.80 994.00 993.56 992.68 992.88 992.28 992.24 992.64 993.64 993.84 994.20 994.28 994.32 994.08 994.12 994.20 994.28 994.16 993.80 993.68 994.16 994.32 993.72 992.68 992.92 993.24 993.00 992.68 992.44 992.52 992.92 993.00 992.40 991.72 991.56 992.12 992.24 991.24 990.80 990.56 990.92 991.40 992.00 992.48 992.28 992.48 992.80 993.32 993.72 994.32 994.72 995.16 995.20 995.48 995.96 996.52 997.00 997.60 998.12 998.76
999.76 999.52 997.44 994.60 994.00 994.00 993.80 994.36 994.88 994.48 993.52 993.68 993.96 994.16 994.24 994.32 994.24 994.28 994.32 994.24 995.04 994.88 995.00 994.72 994.56 994.40 993.96 993.92 994.04 993.84 993.60 993.44 993.20 993.04 992.72 992.28 991.84 991.68 991.80 992.00 992.12 991.80 991.96 992.04 992.64 993.04 993.40 993.28 993.20 993.60 994.00 994.36 994.64 995.00 995.32 995.52 995.92 996.40 996.96 997.40 998.00 998.60 999.04
999.80 999.76 999.28 996.20 994.52 995.08 995.36 995.20 995.04 994.96 994.56 994.28 994.32 994.40 994.48 994.44 994.80 994.88 994.84 995.00 995.56 995.60 995.64 995.12 995.48 996.00 996.00 995.44 994.60 994.12 994.16 994.12 993.96 993.60 993.16 992.84 992.68 992.84 993.08 993.20 994.00 994.76 993.68 993.56 994.04 994.04 994.32 993.84 993.88 994.16 994.40 994.48 994.76 995.20 995.56 995.92 996.20 996.64 997.28 997.76 998.20 998.72 999.16
1001.40 1001.04 999.92 998.20 998.32 999.00 997.20 996.20 996.16 996.00 995.80 995.84 996.16 995.76 995.52 995.48 995.76 995.84 995.96 996.00 995.64 995.52 995.52 995.60 995.92 996.56 996.76 996.40 995.92 995.72 995.52 995.64 994.92 994.28 994.00 993.72 993.76 994.00 993.76 993.84 994.52 994.96 994.48 994.12 994.24 994.52 994.64 994.44 994.56 994.76 994.84 995.00 995.20 995.44 995.76 996.04 996.28 996.88 997.44 997.88 998.40 998.88 999.20
1001.36 1000.56 999.56 998.80 997.80 998.28 998.20 997.72 996.96 996.56 996.36 996.52 996.96 997.08 997.04 997.00 996.80 996.72 996.92 997.20 997.16 997.04 996.80 996.12 996.00 996.68 997.00 997.04 996.52 996.12 995.84 995.40 995.04 994.60 994.40 994.56 994.84 995.04 994.80 994.92 995.12 995.04 994.84 994.72 994.72 994.92 995.04 994.88 994.96 995.00 995.16 995.28 995.48 995.60 995.84 996.12 996.52 997.08 997.44 998.08 998.52 999.04 999.44
1000.00 999.32 998.68 998.12 997.84 998.64 998.76 998.28 998.24 998.08 997.64 997.32 997.32 997.32 997.40 997.44 997.40 997.36 997.36 997.52 997.80 997.92 997.76 997.64 997.20 996.60 996.48 996.64 996.52 996.36 995.96 995.76 995.56 995.24 994.96 994.84 995.00 995.20 995.32 995.52 995.64 995.64 995.60 995.56 995.60 995.72 995.52 995.44 995.44 995.40 995.60 995.76 995.88 996.00 996.20 996.56 996.88 997.32 997.68 998.12 998.72 999.20 999.64
1000.32 999.16 999.16 999.08 998.44 998.40 998.20 998.40 998.72 998.84 998.68 998.48 998.60 998.52 998.32 998.28 998.28 998.16 998.28 998.36 998.12 998.16 998.64 998.96 998.68 998.68 998.24 997.44 997.00 996.88 996.76 996.44 996.08 995.88 995.80 995.76 995.76 995.84 995.84 995.80 996.04 996.16 996.16 996.04 996.04 996.08 996.12 996.16 996.16 996.20 996.36 996.44 996.40 996.52 996.72 996.88 997.16 997.64 997.96 998.24 998.76 999.52 1000.24
Wind_Speed
20 18 17 18 16 14 13 17 19 19 16 17 13 15 18 16 13 14 9 11 13 11 12 12 13 13 16 17 16 16 14 16 14 15 17 19 17 17 16 15 15 17 15 16 18 18 18 18 19 20 18 17 17 17 18 19 18 18 18 18 16 15 14
23 18 17 18 21 18 11 16 16 16 19 17 12 13 11 13 14 11 14 18 13 11 10 11 15 17 16 16 16 17 14 15 15 13 15 18 18 16 15 13 13 17 18 17 20 20 21 21 21 20 18 17 17 17 18 20 19 20 19 18 17 16 15
20 20 18 19 21 24 22 15 12 16 15 20 13 10 16 14 15 10 14 18 14 13 12 11 16 18 15 13 14 16 15 16 16 17 14 22 21 18 14 15 12 14 16 16 17 21 23 20 18 19 19 18 16 16 18 21 21 21 20 18 17 14 15
16 19 17 18 18 22 26 22 18 15 14 13 15 14 11 9 12 13 15 16 12 13 12 15 15 17 15 17 16 15 18 18 17 16 15 19 17 15 15 14 14 15 18 20 20 20 21 20 18 20 22 21 24 21 19 19 20 18 19 19 17 16 16
16 17 16 19 16 16 17 18 18 15 12 10 12 13 15 12 11 13 12 15 12 12 12 15 14 13 16 17 14 15 15 17 18 17 14 18 21 17 15 13 14 16 17 19 18 17 18 17 17 19 21 23 23 21 21 22 21 22 23 21 18 16 15
16 16 17 19 18 16 16 16 18 18 15 15 17 17 15 16 13 8 12 14 8 11 11 9 10 10 14 12 14 15 18 18 14 13 17 14 17 18 17 15 15 15 15 16 17 14 13 15 19 22 21 22 23 23 22 22 22 22 23 21 17 16 15
13 18 18 22 20 19 18 17 18 20 18 14 13 12 13 15 17 16 15 13 11 7 8 8 10 9 16 18 19 17 19 19 18 19 20 11 17 17 19 18 17 15 12 11 12 13 13 15 16 20 20 22 22 23 23 22 22 23 23 21 18 15 15
16 15 18 18 21 20 19 18 18 19 21 21 17 12 12 12 13 14 14 16 11 11 7 8 9 7 10 12 15 12 16 17 18 20 20 10 19 20 19 18 15 13 15 15 13 14 14 15 16 19 20 20 21 21 22 22 24 24 22 20 19 17 16
11 16 16 18 18 18 15 15 17 19 21 25 23 18 9 14 18 19 15 14 11 10 9 4 8 10 15 16 13 11 12 11 18 17 13 9 15 13 16 17 15 14 16 17 16 17 18 20 20 17 18 20 21 21 22 22 22 23 21 19 19 19 20
16 16 16 16 16 17 14 16 18 21 23 25 21 20 13 10 9 18 15 12 6 9 12 11 10 12 8 8 8 11 14 8 13 12 9 15 12 14 14 16 15 15 15 15 15 14 13 17 18 17 18 20 21 20 22 21 21 21 21 19 20 20 20
13 13 9 9 14 14 17 20 22 21 22 22 21 14 16 16 9 12 10 11 9 12 17 14 17 15 11 12 11 13 10 11 4 6 11 9 10 14 14 14 13 10 12 15 16 15 13 16 17 16 18 20 20 17 18 21 19 19 18 18 17 19 20
18 14 15 19 16 18 19 21 22 23 22 22 22 19 18 13 11 12 7 5 14 16 14 11 14 18 15 10 10 12 12 7 6 10 12 17 10 8 8 9 8 9 11 15 15 16 16 17 18 16 18 19 19 16 18 18 19 19 17 16 16 17 17
25 26 20 19 21 17 18 20 21 22 23 23 23 20 22 16 15 16 10 10 12 11 18 17 11 8 11 12 11 12 10 10 8 3 6 13 19 14 12 12 10 11 9 11 15 16 16 17 19 19 18 18 16 15 15 16 17 19 16 16 16 17 17
27 25 27 23 20 19 19 19 19 20 21 23 24 22 20 22 14 14 17 11 13 16 16 20 19 14 11 10 8 10 11 11 5 4 16 16 15 15 11 9 10 8 8 8 10 12 11 15 16 17 16 16 17 17 16 17 15 15 15 16 15 16 17
16 20 23 25 26 20 21 20 18 20 20 22 23 22 22 21 23 26 24 14 12 13 10 14 18 17 14 10 10 14 11 13 16 14 14 13 17 17 17 15 13 11 11 10 11 12 12 13 15 16 14 15 16 20 19 20 16 15 14 15 16 16 16
14 17 22 24 24 24 22 21 21 24 25 23 21 21 17 17 15 15 20 15 12 12 15 16 15 17 17 19 15 11 9 16 16 16 17 17 12 9 15 13 12 13 13 13 13 14 14 14 14 13 12 13 15 18 17 18 19 17 14 16 17 16 14
15 14 15 17 19 19 21 23 23 22 20 20 20 13 16 18 18 17 14 12 10 8 9 16 16 16 15 16 18 18 16 9 12 17 18 18 16 9 13 14 16 17 18 16 15 16 16 15 14 15 13 13 14 15 15 15 15 17 16 17 15 15 14
12 15 15 13 12 15 17 13 18 21 22 20 20 18 18 19 21 14 14 14 9 9 12 17 13 16 15 11 9 10 8 6 4 9 11 16 15 13 11 18 15 14 11 12 14 16 15 17 20 19 17 16 13 13 12 10 14 15 13 14 15 16 14
12 13 17 16 18 18 14 12 13 15 19 21 23 20 21 23 18 18 20 21 17 14 12 12 13 9 9 11 13 15 19 15 12 10 10 7 10 11 9 11 18 16 15 14 15 15 17 19 15 14 13 13 12 13 12 13 12 12 11 12 15 14 14
10 12 12 15 17 12 12 15 15 15 17 19 20 21 22 25 22 16 10 10 11 20 17 17 10 9 14 19 16 10 14 17 17 18 16 16 15 9 7 9 9 16 17 17 18 17 15 14 15 17 17 17 17 18 18 14 12 11 9 11 14 14 13
13 12 12 14 6 11 15 13 16 13 13 16 18 16 15 19 19 16 11 8 12 14 13 20 19 15 15 13 10 19 21 14 18 22 21 22 17 14 12 12 10 17 15 16 16 13 14 17 17 18 17 18 17 17 17 15 12 12 10 12 14 14 13
13 11 13 12 13 15 12 11 3 2 5 7 5 5 6 4 9 10 13 9 10 10 16 11 5 11 16 12 10 14 21 24 22 21 21 21 19 16 15 15 11 15 16 16 16 18 18 18 18 16 17 17 15 14 15 14 13 13 11 13 13 13 14
8 13 12 11 13 11 6 8 4 8 2 3 7 5 8 2 6 11 10 9 9 11 13 13 9 8 6 9 11 10 18 22 22 22 21 22 22 22 20 19 15 16 18 20 17 18 19 20 17 16 17 18 16 15 14 17 16 14 13 13 13 14 14
10 10 11 13 7 6 6 7 6 10 8 6 3 10 7 5 7 9 10 9 9 9 9 9 8 6 7 9 5 12 19 15 12 12 13 18 19 21 22 22 21 10 16 15 18 20 19 17 18 16 18 16 16 15 15 17 16 14 15 14 14 13 13
9 10 9 9 9 5 8 8 5 3 4 4 9 11 0 6 7 7 8 7 8 8 9 7 8 7 8 11 15 17 16 12 15 10 9 9 12 14 19 22 20 11 15 18 19 21 16 16 16 17 16 15 14 14 14 14 15 15 15 15 15 14 13
13 11 12 9 8 7 8 7 8 8 7 10 11 2 2 4 7 7 8 9 9 9 9 7 6 9 14 15 17 20 18 15 6 4 3 11 17 17 5 3 11 14 15 13 15 16 12 14 14 14 14 14 13 13 14 15 14 13 14 15 14 14 14
12 11 13 9 8 5 11 8 10 8 10 1 4 3 5 7 7 8 8 9 10 10 10 10 11 12 12 15 14 13 14 16 14 3 4 6 9 11 8 6 9 9 9 11 14 13 14 16 13 13 14 15 14 13 13 13 13 13 14 14 15 15 14
11 12 12 6 5 5 10 10 7 8 1 4 3 5 3 6 6 7 7 7 9 10 10 11 11 12 10 8 6 8 8 13 17 15 8 6 8 6 4 8 9 11 9 8 8 9 12 10 10 11 13 15 13 13 13 12 13 14 14 14 15 15 14
9 7 6 1 2 7 9 10 1 7 8 5 4 2 4 4 6 8 7 10 13 14 15 12 10 9 10 5 5 8 8 10 10 9 13 14 13 5 3 5 4 5 8 8 7 7 7 8 7 10 13 14 14 13 11 12 14 14 14 14 14 14 13
7 8 8 8 5 6 7 6 7 9 7 8 7 7 5 7 6 9 9 9 9 11 14 12 7 4 4 7 9 8 6 4 7 7 6 6 6 8 11 6 3 6 7 6 8 10 11 12 11 10 11 14 15 12 12 13 14 14 14 14 13 14 13
8 2 3 8 10 5 8 5 7 6 10 9 6 6 6 6 8 9 10 9 7 7 7 12 13 14 9 9 10 7 5 6 6 9 7 4 2 4 3 4 3 3 8 10 11 13 14 14 15 14 16 15 14 11 12 14 14 13 14 14 14 13 13
5 5 11 8 12 13 8 8 10 12 9 11 9 8 9 9 9 11 11 12 14 13 13 13 12 11 12 12 11 11 12 11 9 7 7 9 13 12 8 9 11 6 7 10 12 11 10 11 13 15 14 14 14 13 13 14 14 13 13 13 13 13 14
3 9 11 2 16 17 17 17 15 14 14 11 10 10 11 12 13 15 16 15 14 14 15 15 15 15 15 16 13 13 11 11 10 11 12 13 14 12 13 13 11 7 7 10 9 12 10 10 12 13 13 14 15 14 12 12 12 13 13 13 13 14 13
2 6 4 7 6 11 11 15 15 15 15 17 17 18 18 16 15 15 17 18 17 17 16 15 14 13 11 13 14 14 11 9 9 11 12 14 15 13 12 12 12 10 10 10 11 11 9 9 11 12 13 12 12 13 13 12 12 13 13 13 14 13 12
0 2 2 4 12 12 12 12 13 13 13 15 17 17 17 17 17 16 16 16 17 18 19 17 15 13 10 8 8 10 9 9 9 11 12 13 12 10 11 14 14 12 12 12 11 11 9 9 10 11 11 12 11 12 11 11 12 12 11 10 10 11 11
5 1 3 4 8 12 11 13 13 13 12 14 16 16 16 16 15 16 17 16 16 16 17 19 20 16 13 11 8 6 7 10 10 12 12 14 14 14 14 13 13 12 12 11 11 11 10 10 11 11 13 13 11 12 11 11 10 9 9 9 10 10 10
2 6 9 8 12 13 12 12 13 12 13 12 14 15 15 15 16 15 16 15 16 17 15 16 19 19 17 15 14 13 12 12 11 10 11 11 13 13 13 15 14 11 10 10 10 10 10 11 11 12 12 11 10 10 9 9 8 8 7 8 10 12 11
Wind_Direction
221 205 205 209 220 224 203 209 217 222 221 228 229 251 252 232 230 244 237 238 232 242 233 200 202 229 220 212 218 216 205 207 206 203 185 184 186 190 194 201 192 189 191 191 196 199 192 185 185 191 190 187 184 180 180 181 184 184 185 185 184 183 182
216 208 203 212 209 234 229 215 214 216 230 238 232 233 231 240 241 225 227 242 230 224 235 196 211 213 217 205 201 214 199 203 212 215 170 175 182 191 191 198 188 184 191 196 196 197 197 192 189 188 188 186 184 183 181 180 183 186 187 185 185 182 181
197 199 201 212 218 214 235 237 184 217 194 216 215 241 233 224 226 250 231 233 247 240 234 209 205 215 207 206 202 206 198 204 202 213 174 168 178 189 186 191 184 180 190 199 196 198 199 194 186 186 185 184 185 183 184 185 185 187 185 187 188 184 183
187 188 196 216 205 211 226 242 248 210 232 216 215 219 248 240 238 228 235 235 229 223 244 227 209 215 194 194 191 213 218 209 207 208 194 173 176 181 181 187 186 185 194 204 202 199 201 196 186 187 189 189 191 188 184 186 186 185 186 188 185 185 182
193 198 195 212 206 197 204 225 233 241 221 228 242 225 224 224 234 241 243 230 226 236 228 233 220 203 197 191 190 188 220 228 211 215 216 174 176 168 176 182 186 190 197 200 199 192 202 202 191 191 192 193 193 191 189 187 185 186 189 190 187 184 181
204 215 194 207 212 206 208 213 228 229 226 195 215 231 220 219 224 230 238 243 241 224 231 246 251 214 184 180 218 196 202 222 240 236 216 188 170 167 172 176 184 188 190 188 191 186 182 200 202 196 194 194 194 194 190 188 188 189 189 190 188 182 182
219 211 210 194 210 216 214 209 220 222 233 234 211 225 221 222 220 226 242 255 231 243 236 212 237 210 185 192 208 213 196 201 216 237 246 182 162 163 174 180 177 172 169 176 184 178 183 193 207 197 195 196 194 193 191 190 189 190 190 190 185 178 181
255 230 212 201 197 212 222 217 218 214 221 225 235 226 221 240 226 226 228 233 234 230 242 260 239 236 241 207 203 208 211 204 211 213 224 200 167 167 178 178 171 174 171 172 185 187 192 198 208 190 193 196 194 193 193 191 191 189 190 189 185 178 181
227 255 212 205 202 203 218 224 214 219 221 227 235 247 215 223 227 232 225 237 209 203 254 201 244 243 232 228 208 207 240 206 218 213 207 150 160 155 163 168 175 180 174 179 190 192 192 193 199 183 186 195 196 195 194 192 191 189 190 188 184 182 184
204 214 216 196 200 209 206 222 230 219 223 220 222 232 235 243 203 225 240 243 222 210 200 225 234 223 226 226 224 220 232 251 216 193 149 139 143 161 165 170 172 181 179 176 183 190 189 186 184 180 184 193 199 198 197 193 191 189 191 189 185 183 184
219 220 240 222 201 208 215 206 218 228 223 227 227 227 233 237 242 235 228 255 268 235 206 201 214 236 209 170 193 246 245 217 189 73 119 134 148 166 165 170 175 175 166 173 178 181 184 183 182 182 183 191 198 197 196 196 191 189 187 190 183 183 184
248 235 214 239 216 212 216 219 209 219 231 223 226 223 227 228 241 244 235 229 248 257 246 206 202 214 234 215 175 210 249 281 217 178 146 127 171 172 167 162 166 174 169 180 177 182 180 182 185 184 184 191 196 197 195 197 192 189 188 187 184 180 182
224 240 244 224 236 223 222 220 221 211 215 233 230 226 231 220 230 245 226 221 242 258 253 261 258 224 226 229 207 196 231 234 234 119 150 155 170 169 167 162 169 176 175 171 179 182 185 180 183 184 186 192 196 198 195 194 196 192 184 184 183 181 179
203 217 238 247 242 231 219 224 225 218 216 218 231 242 234 232 240 236 241 222 227 232 242 253 253 263 255 235 215 186 205 227 272 183 166 194 186 156 159 170 176 179 177 163 168 175 177 182 182 188 186 190 194 196 193 191 197 191 180 181 182 182 180
248 215 214 231 245 249 249 226 225 246 228 216 217 225 236 239 236 240 242 236 241 244 241 239 257 264 269 261 242 221 199 200 224 245 248 224 212 188 171 177 181 178 179 170 166 168 180 182 186 189 191 190 192 200 198 195 195 193 178 177 180 183 181
231 238 224 215 227 242 252 260 238 216 237 247 219 210 215 233 242 243 239 237 234 227 232 243 233 236 246 257 263 257 223 210 205 227 239 249 249 187 171 172 181 181 181 177 168 174 176 184 185 189 190 190 190 201 200 198 194 195 182 176 180 182 176
236 232 246 228 224 226 233 233 240 251 240 238 261 250 196 215 241 247 245 242 237 224 217 231 238 234 229 238 247 253 250 225 216 209 221 233 228 214 173 168 181 186 187 178 178 176 181 182 184 188 189 191 197 201 205 198 189 196 188 179 177 178 173
226 229 247 244 235 236 232 229 232 235 249 253 236 237 248 224 203 221 243 264 261 252 251 252 233 224 238 242 240 253 258 249 229 257 229 221 228 231 192 178 180 184 183 183 177 177 179 185 190 191 188 193 199 205 211 198 194 194 191 173 175 175 170
224 220 224 232 232 233 241 248 250 251 249 249 254 253 243 246 233 222 211 210 227 253 250 247 255 269 273 263 251 232 252 259 255 257 266 252 225 213 227 169 181 175 183 178 178 177 183 188 187 186 188 190 188 197 208 203 197 192 191 167 170 170 168
225 224 211 225 228 247 243 244 250 239 242 251 258 251 248 254 259 259 274 335 253 202 222 246 254 251 249 259 263 263 240 253 258 254 259 247 230 227 217 219 186 177 175 179 179 182 181 176 180 186 190 192 195 198 205 202 194 191 179 160 161 162 162
223 213 222 232 275 262 242 233 231 231 228 221 223 240 243 249 253 265 310 321 311 336 254 219 218 227 242 232 239 253 258 245 246 253 252 254 252 248 241 227 200 171 179 177 177 170 174 179 182 187 186 190 192 193 199 196 188 185 168 159 159 157 155
209 217 215 223 221 233 228 232 349 289 351 2 323 312 294 323 322 320 273 277 305 341 345 332 286 229 215 222 226 222 237 248 248 246 253 260 264 262 257 255 233 173 173 177 167 173 176 180 182 181 181 185 184 188 193 187 179 179 161 162 158 153 152
191 216 226 220 228 224 226 221 206 237 40 6 357 292 265 18 344 22 12 351 355 350 327 326 338 358 313 237 226 225 229 227 234 246 250 249 248 253 258 260 249 187 174 173 165 174 175 180 179 175 177 180 182 185 187 186 181 173 158 158 157 155 155
205 218 221 224 211 230 131 126 185 225 210 93 261 253 246 36 4 24 20 10 9 355 344 351 340 337 317 311 296 256 237 234 239 235 238 242 238 235 232 241 253 211 174 164 164 173 174 178 174 175 174 176 179 181 182 180 178 170 158 156 155 155 155
199 188 233 248 239 201 165 207 182 127 189 221 229 229 16 357 0 5 6 352 10 357 351 354 317 311 303 304 292 301 296 249 247 267 275 272 257 245 230 226 232 197 173 165 167 173 173 173 172 174 173 172 175 177 174 175 177 170 155 149 151 153 149
219 213 223 232 250 217 155 188 209 209 222 219 228 58 291 307 347 340 344 343 358 349 342 325 311 316 306 303 312 303 303 294 313 299 310 10 347 286 274 129 167 158 165 153 160 166 159 170 169 170 166 164 166 168 169 171 168 159 148 146 148 146 149
229 223 227 226 233 126 211 159 204 196 227 138 51 358 358 355 346 352 353 351 342 335 321 321 313 312 309 305 306 337 348 359 345 336 55 60 41 2 84 92 87 119 125 147 161 163 163 173 173 160 154 153 158 162 164 158 154 149 146 145 143 142 145
231 219 224 229 258 187 181 155 207 137 233 81 48 36 352 15 16 7 356 352 342 330 312 303 304 303 300 290 331 22 28 30 14 350 359 64 97 97 14 114 149 131 134 153 162 167 168 165 159 151 141 149 152 157 153 148 143 142 143 139 136 136 139
250 250 236 218 73 144 179 213 280 109 87 77 55 307 37 12 39 15 18 12 1 349 344 322 313 309 316 313 34 24 29 38 40 19 4 7 357 12 122 108 103 132 130 155 166 144 121 132 126 128 137 141 141 140 137 132 131 134 133 131 130 132 133
341 65 73 84 109 121 146 118 147 169 116 65 43 31 40 42 35 37 27 19 6 2 3 346 328 339 18 2 23 23 16 41 66 35 27 359 33 9 339 339 88 119 157 175 131 107 96 94 92 102 120 123 120 116 118 121 125 125 126 126 127 128 128
3 355 49 108 93 80 71 94 86 108 132 110 85 70 60 65 56 51 53 29 21 13 25 27 31 27 34 63 61 46 46 50 65 63 30 3 13 93 100 266 237 172 170 150 128 119 113 109 106 105 106 107 109 113 117 122 122 123 123 122 121 123 127
47 260 306 76 70 57 74 92 57 44 82 117 90 69 76 75 67 58 51 56 41 33 35 33 35 40 46 56 56 45 45 50 68 77 65 52 53 46 48 36 356 32 64 108 118 113 107 115 123 123 113 110 114 123 126 123 121 117 116 117 118 119 121
67 346 299 119 95 91 76 71 65 56 47 75 108 113 104 97 85 71 68 66 64 48 45 43 44 37 24 21 25 54 48 49 42 44 54 53 54 56 55 61 62 36 83 91 104 109 108 107 113 114 122 125 127 124 120 119 118 114 110 111 114 118 118
153 229 297 334 109 83 65 70 67 64 62 65 65 61 65 69 73 72 68 58 51 53 51 54 51 48 35 29 29 27 39 35 51 64 56 59 61 50 48 67 78 68 59 75 82 80 84 99 104 108 107 111 116 117 118 115 113 111 115 118 120 120 123
105 107 144 147 94 85 59 49 56 63 68 72 70 66 69 66 60 58 61 57 49 42 34 29 56 70 59 45 30 40 13 41 54 71 74 88 92 86 74 73 64 63 64 67 73 80 92 102 108 110 110 108 105 104 105 110 113 115 119 119 121 123 127
320 169 156 94 92 91 78 61 52 48 44 60 69 72 67 65 67 68 65 60 56 50 40 33 24 41 70 62 40 47 63 54 47 55 70 80 83 87 82 76 74 73 69 64 64 62 61 65 70 80 90 91 92 102 106 112 117 118 124 122 125 127 121
135 106 94 85 86 85 76 70 62 54 51 55 60 57 58 63 61 58 59 54 49 51 47 32 29 16 19 41 45 36 36 38 35 57 67 63 62 68 74 75 76 78 79 80 79 78 75 73 76 79 80 81 84 90 102 109 118 118 110 117 120 109 107